Flag for Greece Weather past 2 weeks in Corfu, Greece

Now
86 °F

Scattered clouds.


Feels Like: 85 °F
Forecast: 64 / 83 °F
Wind: 15 mph from West

Location: Kerkyra Airport

Current Time: Jun 3, 2015 at 4:55:25 PM

Latest Report: Jun 3, 2015 at 4:20 PM


Visibility: N/A

Pressure: 30.04 "Hg

Humidity: 40%

Dew point: 59 °F

Location of CorfuLocation

Historic Weather in Corfu — Graph

°F

Corfu temperature yesterday

Maximum temperature yesterday: 84 °F (at 2:50 PM)
Minimum temperature yesterday: 59 °F (at 7:20 AM)
Average temperature yesterday: 73 °F

Past Weeks' High & Low Weather Summary

 TemperatureHumidityPressure
High86 °F (Jun 3, 1:50 PM)100% (May 20, 5:50 AM)30.04 "Hg (May 20, 5:50 AM)
Low55 °F (May 26, 6:20 AM)39% (May 29, 4:20 PM)29.68 "Hg (May 27, 5:50 AM)
Average69 °F72%29.90 "Hg
* Reported May 19 3:20 PM — Jun 3 3:20 PM, Corfu, Weather by CustomWeather, © 2015

Note: Actual official high and low records may vary slightly from our data, if they occured in-between our weather recording intervals... More about our weather records

Advertising

Corfu weather history for previous 24 hours

 ConditionsComfort  
Time TempWeatherWind HumidityBarometerVisibility
3:20 PM
Wed, Jun 3
86 °FScattered clouds.13 mph40%30.04 "HgN/A
2:50 PM86 °FScattered clouds.13 mph40%30.04 "HgN/A
2:20 PM86 °FPassing clouds.10 mph40%30.04 "HgN/A
1:50 PM86 °FPassing clouds.9 mph40%30.04 "HgN/A
1:20 PM84 °FPassing clouds.9 mph51%30.04 "HgN/A
12:50 PM84 °FPassing clouds.5 mph51%30.04 "HgN/A
12:20 PM82 °FSunny.7 mph55%30.04 "Hg10 mi
11:50 AM81 °FSunny.3 mph58%30.04 "Hg10 mi
11:20 AM79 °FSunny.3 mph61%30.04 "Hg10 mi
10:50 AM77 °FSunny.5 mph65%30.04 "Hg10 mi
10:20 AM75 °FSunny.3 mph69%30.04 "Hg10 mi
9:50 AM73 °FSunny.No wind74%30.04 "Hg10 mi
9:20 AM70 °FSunny.No wind78%30.04 "Hg10 mi
8:50 AM68 °FSunny.No wind83%30.04 "Hg10 mi
8:20 AM66 °FPassing clouds.No wind83%30.04 "HgN/A
7:50 AM64 °FPassing clouds.2 mph88%30.04 "HgN/A
7:20 AM64 °FScattered clouds.5 mph83%30.04 "HgN/A
6:50 AM63 °FPassing clouds.No wind88%30.04 "HgN/A
6:20 AM64 °FPassing clouds.No wind88%30.04 "HgN/A
5:50 AM64 °FClear.2 mph88%30.04 "Hg10 mi
5:20 AM64 °FClear.No wind88%30.04 "Hg10 mi
4:50 AM64 °FClear.3 mph88%30.04 "Hg10 mi
4:20 AM64 °FClear.No wind88%30.04 "Hg10 mi
3:50 AM66 °FClear.2 mph83%30.04 "Hg10 mi
3:20 AM68 °FClear.No wind83%30.04 "Hg10 mi
2:50 AM68 °FClear.No wind83%30.04 "Hg10 mi
2:20 AM68 °FClear.No wind88%30.04 "Hg10 mi
1:50 AM68 °FClear.2 mph88%30.04 "Hg10 mi
1:20 AM70 °FClear.No wind78%30.04 "Hg10 mi
12:50 AM72 °FPassing clouds.No wind73%30.04 "HgN/A
12:20 AM73 °FPassing clouds.2 mph69%30.01 "HgN/A
11:50 PM
Tue, Jun 2
73 °FPartly cloudy.3 mph69%30.01 "HgN/A
11:20 PM72 °FPartly cloudy.7 mph73%30.04 "HgN/A
10:50 PM73 °FThunderstorms. Partly cloudy.3 mph69%30.01 "HgN/A
10:20 PM75 °FThunderstorms. Partly cloudy.3 mph65%30.01 "HgN/A
9:50 PM75 °FPassing clouds.9 mph65%30.01 "HgN/A
9:20 PM75 °FScattered clouds.6 mph57%30.01 "HgN/A
8:50 PM77 °FScattered clouds.7 mph54%30.01 "HgN/A
8:20 PM79 °FPassing clouds.7 mph61%29.98 "HgN/A
7:50 PM79 °FPassing clouds.9 mph61%29.98 "HgN/A
7:20 PM81 °FScattered clouds.6 mph54%29.98 "HgN/A
6:50 PM82 °FScattered clouds.7 mph51%29.98 "HgN/A
6:20 PM84 °FScattered clouds.8 mph43%29.98 "HgN/A
5:50 PM84 °FScattered clouds.6 mph43%29.98 "HgN/A
5:20 PM82 °FPassing clouds.9 mph48%29.98 "HgN/A
4:50 PM82 °FPassing clouds.9 mph48%29.98 "HgN/A
4:20 PM84 °FPassing clouds.12 mph40%29.98 "HgN/A
Weather by CustomWeather, © 2015

See weather overviewHow to use our weather pages